Weather in Assokolay

Russia / Republic of Adygea     44°50′40″N   39°28′03″E
temp.,
°C
wind,
m/s
gust,
m/s
humid.,
%
clouds,
%
prec.,
mm/h
press.,
hPa
HPBL,
m
12 may, wed
wed1200:00+9sse3868100 0.1 1016507
03:00+9se257235 0.2 1016276
06:00+7e3692100 0.0 1017190
09:00+11ese357656 0.0 1016366
12:00+17e345125 0.0 10151287
15:00+19ene5556100 0.0 1013804
18:00+17ene3876100 0.0 1013355
21:00+12e229228 0.0 101328
13 may, thu
thu1300:00+10sse12930 0.0 101212
03:00+9sw11960 0.0 101211
06:00+10s11940 0.0 101219
09:00+18ene11675 0.0 1012310
12:00+23ene3354100 0.0 1012663
15:00+25ene465413 0.0 1011902
18:00+22e4117357 0.0 1010464
21:00+17e3893100 0.0 1010132
14 may, fri
fri1400:00+15sse22925 0.0 101014
03:00+14sse22830 0.0 101011
06:00+14se22650 0.0 101116
09:00+23e23485 0.0 1010176
12:00+28ne33435 0.0 1010534
15:00+29ne34495 0.0 1010802
18:00+26ne25755 0.0 1009159
21:00+20w008930 0.0 100911
15 may, sat
sat1500:00+17w35961 0.0 101091
03:00+15wnw412860 0.0 1012228
06:00+15ssw22895 0.0 101335
09:00+21wnw236460 0.0 1014440
12:00+25nnw345832 0.0 1013935
15:00+25n22575 0.0 1013790
18:00+24nne24740 0.1 1012272
21:00+19ne22925 0.3 101232
16 may, sun
sun1600:00+17e11945 0.0 101112
03:00+16ne119694 0.0 101011
06:00+17e2396100 0.0 100993
09:00+22ene3580100 0.0 1008445
12:00+27ene5668100 0.0 10061111
15:00+28ene5765100 0.0 10041339
18:00+25ene51277100 0.0 1002526
21:00+21ene3108136 0.0 1002217